QPF
0.03 0.04 0.05 0.04 0.03 0.02 0.01 0.01 0.01 0.00 0.00 0.00 0.01 0.01 0.02 0.02 0.02 0.02 0.02 0.03 0.03 0.03 0.03 0.03 0.03 0.03 0.04 0.04 0.02 0.01 0.00 0.00 0.00 0.01 0.02 0.03 0.02 0.00 0.00 0.00 0.00 0.02 0.01
0.03 0.04 0.04 0.04 0.04 0.03 0.02 0.02 0.01 0.01 0.01 0.00 0.01 0.01 0.01 0.01 0.01 0.02 0.02 0.03 0.03 0.03 0.03 0.02 0.03 0.03 0.04 0.05 0.06 0.04 0.02 0.01 0.01 0.00 0.01 0.03 0.03 0.01 0.00 0.00 0.00 0.03 0.00
0.02 0.02 0.03 0.03 0.03 0.03 0.03 0.03 0.02 0.01 0.01 0.01 0.01 0.01 0.01 0.01 0.01 0.01 0.02 0.02 0.02 0.03 0.03 0.02 0.02 0.02 0.03 0.05 0.06 0.05 0.03 0.02 0.00 0.00 0.01 0.06 0.09 0.04 0.01 0.00 0.00 0.01 0.00
0.01 0.01 0.01 0.02 0.03 0.03 0.03 0.03 0.02 0.02 0.02 0.01 0.01 0.01 0.01 0.01 0.01 0.02 0.02 0.02 0.02 0.02 0.02 0.02 0.02 0.02 0.02 0.03 0.04 0.04 0.04 0.03 0.01 0.00 0.01 0.07 0.16 0.10 0.04 0.01 0.00 0.00 0.00
0.00 0.00 0.00 0.01 0.01 0.02 0.02 0.02 0.02 0.02 0.02 0.02 0.02 0.01 0.01 0.02 0.02 0.02 0.02 0.02 0.02 0.02 0.02 0.01 0.01 0.02 0.02 0.02 0.02 0.03 0.03 0.03 0.02 0.00 0.01 0.05 0.13 0.13 0.06 0.03 0.01 0.01 0.00
0.00 0.00 0.00 0.00 0.00 0.00 0.01 0.01 0.01 0.01 0.01 0.01 0.01 0.01 0.02 0.02 0.03 0.02 0.02 0.02 0.02 0.02 0.02 0.01 0.02 0.02 0.02 0.03 0.03 0.03 0.03 0.03 0.01 0.00 0.02 0.03 0.10 0.10 0.06 0.03 0.02 0.01 0.01
0.00 0.00 0.00 0.00 0.00 0.00 0.00 0.00 0.00 0.00 0.00 0.00 0.01 0.01 0.01 0.02 0.03 0.03 0.03 0.02 0.02 0.02 0.02 0.02 0.02 0.03 0.03 0.04 0.05 0.05 0.04 0.03 0.01 0.03 0.05 0.07 0.09 0.06 0.04 0.02 0.02 0.01 0.01
0.00 0.00 0.00 0.00 0.00 0.00 0.00 0.00 0.00 0.00 0.00 0.00 0.00 0.00 0.01 0.02 0.04 0.05 0.04 0.02 0.02 0.02 0.03 0.03 0.02 0.03 0.03 0.03 0.05 0.06 0.05 0.02 0.00 0.03 0.07 0.10 0.11 0.06 0.05 0.04 0.03 0.01 0.01
0.00 0.00 0.00 0.00 0.00 0.00 0.00 0.00 0.00 0.00 0.00 0.00 0.00 0.00 0.00 0.01 0.02 0.04 0.03 0.03 0.03 0.04 0.03 0.03 0.04 0.03 0.03 0.03 0.04 0.05 0.03 0.01 0.00 0.06 0.06 0.14 0.10 0.08 0.06 0.04 0.04 0.03 0.01
0.00 0.00 0.00 0.00 0.00 0.00 0.00 0.00 0.00 0.00 0.00 0.00 0.00 0.00 0.00 0.00 0.00 0.01 0.02 0.02 0.03 0.04 0.04 0.04 0.05 0.04 0.04 0.03 0.03 0.03 0.02 0.01 0.00 0.04 0.13 0.14 0.09 0.09 0.07 0.04 0.04 0.04 0.03
0.00 0.00 0.00 0.00 0.00 0.00 0.00 0.00 0.00 0.00 0.00 0.00 0.00 0.00 0.00 0.00 0.00 0.00 0.01 0.01 0.02 0.03 0.03 0.05 0.05 0.04 0.04 0.02 0.03 0.02 0.01 0.00 0.01 0.05 0.12 0.13 0.10 0.09 0.08 0.06 0.04 0.04 0.05
0.00 0.00 0.00 0.00 0.00 0.00 0.00 0.00 0.00 0.00 0.00 0.00 0.00 0.00 0.00 0.00 0.00 0.00 0.00 0.00 0.01 0.01 0.02 0.04 0.04 0.04 0.05 0.05 0.09 0.08 0.02 0.00 0.01 0.02 0.06 0.06 0.10 0.13 0.11 0.08 0.06 0.04 0.05
0.00 0.00 0.00 0.00 0.00 0.00 0.00 0.00 0.00 0.00 0.00 0.00 0.00 0.00 0.00 0.00 0.00 0.00 0.00 0.00 0.00 0.00 0.01 0.02 0.03 0.05 0.09 0.13 0.16 0.16 0.10 0.05 0.02 0.01 0.02 0.03 0.06 0.09 0.10 0.09 0.09 0.08 0.08
0.00 0.00 0.00 0.00 0.00 0.00 0.00 0.00 0.00 0.00 0.00 0.00 0.00 0.00 0.00 0.00 0.00 0.00 0.00 0.00 0.00 0.00 0.00 0.01 0.01 0.03 0.05 0.07 0.11 0.13 0.13 0.11 0.07 0.04 0.03 0.03 0.03 0.03 0.04 0.05 0.07 0.10 0.09
0.00 0.00 0.00 0.00 0.00 0.00 0.00 0.00 0.00 0.00 0.00 0.00 0.00 0.00 0.00 0.00 0.00 0.00 0.00 0.00 0.00 0.00 0.00 0.00 0.00 0.01 0.02 0.03 0.05 0.07 0.10 0.11 0.09 0.08 0.07 0.05 0.02 0.01 0.01 0.02 0.04 0.06 0.10
0.00 0.00 0.00 0.00 0.00 0.00 0.00 0.00 0.00 0.00 0.00 0.00 0.00 0.00 0.00 0.00 0.00 0.00 0.00 0.00 0.00 0.00 0.00 0.00 0.00 0.00 0.00 0.01 0.01 0.03 0.04 0.05 0.07 0.07 0.08 0.07 0.04 0.01 0.00 0.00 0.01 0.03 0.07
0.00 0.00 0.00 0.00 0.00 0.00 0.00 0.00 0.00 0.00 0.00 0.00 0.00 0.00 0.00 0.00 0.00 0.00 0.00 0.00 0.00 0.00 0.00 0.00 0.00 0.00 0.00 0.00 0.00 0.01 0.01 0.02 0.03 0.05 0.06 0.07 0.07 0.04 0.01 0.01 0.00 0.01 0.02
0.00 0.00 0.00 0.00 0.00 0.00 0.00 0.00 0.00 0.00 0.00 0.00 0.00 0.00 0.00 0.00 0.00 0.00 0.00 0.00 0.00 0.00 0.00 0.00 0.00 0.00 0.00 0.00 0.00 0.00 0.00 0.00 0.01 0.02 0.03 0.05 0.06 0.06 0.03 0.01 0.00 0.00 0.01
0.00 0.00 0.00 0.00 0.00 0.00 0.00 0.00 0.00 0.00 0.00 0.00 0.00 0.00 0.00 0.00 0.00 0.00 0.00 0.00 0.00 0.00 0.00 0.00 0.00 0.00 0.00 0.00 0.00 0.00 0.00 0.00 0.00 0.01 0.01 0.01 0.02 0.04 0.04 0.02 0.00 0.00 0.00
0.00 0.00 0.00 0.00 0.00 0.00 0.00 0.00 0.00 0.00 0.00 0.00 0.00 0.00 0.00 0.00 0.00 0.00 0.00 0.00 0.00 0.00 0.00 0.00 0.00 0.00 0.00 0.00 0.00 0.00 0.00 0.00 0.00 0.00 0.00 0.00 0.00 0.01 0.02 0.01 0.00 0.00 0.00
0.00 0.00 0.00 0.00 0.00 0.00 0.00 0.00 0.00 0.00 0.00 0.00 0.00 0.00 0.00 0.00 0.00 0.00 0.00 0.00 0.00 0.00 0.00 0.00 0.00 0.00 0.00 0.00 0.00 0.00 0.00 0.00 0.00 0.00 0.00 0.00 0.00 0.00 0.00 0.01 0.00 0.00 0.00
0.00 0.00 0.00 0.00 0.00 0.00 0.00 0.00 0.00 0.00 0.00 0.00 0.00 0.00 0.00 0.00 0.00 0.00 0.00 0.00 0.00 0.00 0.00 0.00 0.00 0.00 0.00 0.00 0.01 0.01 0.00 0.00 0.00 0.00 0.00 0.00 0.00 0.00 0.00 0.00 0.00 0.00 0.00
0.00 0.00 0.00 0.00 0.00 0.00 0.00 0.00 0.00 0.00 0.00 0.00 0.00 0.00 0.00 0.00 0.00 0.00 0.00 0.00 0.00 0.00 0.00 0.00 0.00 0.01 0.01 0.00 0.01 0.03 0.03 0.01 0.00 0.00 0.00 0.00 0.00 0.00 0.00 0.00 0.01 0.00 0.00
0.00 0.00 0.00 0.00 0.00 0.00 0.00 0.00 0.00 0.00 0.00 0.00 0.00 0.00 0.00 0.00 0.00 0.00 0.00 0.00 0.00 0.00 0.00 0.00 0.00 0.01 0.01 0.01 0.01 0.02 0.03 0.02 0.03 0.01 0.01 0.01 0.01 0.01 0.01 0.00 0.01 0.01 0.00
0.00 0.00 0.00 0.00 0.00 0.00 0.00 0.00 0.00 0.00 0.00 0.00 0.00 0.00 0.00 0.00 0.00 0.00 0.00 0.00 0.00 0.00 0.00 0.00 0.00 0.01 0.01 0.02 0.02 0.02 0.02 0.02 0.02 0.04 0.02 0.01 0.01 0.01 0.01 0.01 0.01 0.01 0.00
0.00 0.00 0.00 0.00 0.00 0.00 0.00 0.00 0.00 0.00 0.00 0.00 0.00 0.00 0.00 0.00 0.00 0.00 0.00 0.00 0.00 0.00 0.00 0.00 0.01 0.01 0.01 0.01 0.02 0.02 0.03 0.04 0.03 0.04 0.03 0.01 0.01 0.01 0.01 0.01 0.02 0.01 0.01
MSLP
1023.27 1022.43 1021.53 1020.74 1020.14 1019.74 1019.51 1019.35 1019.18 1018.94 1018.61 1018.20 1017.77 1017.39 1017.08 1016.88 1016.77 1016.72 1016.69 1016.64 1016.55 1016.43 1016.29 1016.15 1016.04 1015.95 1015.89 1015.83 1015.77 1015.68 1015.57 1015.46 1015.36 1015.31 1015.30 1015.35 1015.43 1015.51 1015.58 1015.61 1015.59 1015.54 1015.48
1024.04 1023.16 1022.25 1021.44 1020.82 1020.39 1020.10 1019.87 1019.63 1019.31 1018.91 1018.45 1018.00 1017.59 1017.28 1017.08 1016.96 1016.90 1016.84 1016.76 1016.63 1016.48 1016.31 1016.16 1016.03 1015.94 1015.88 1015.82 1015.74 1015.64 1015.51 1015.38 1015.28 1015.22 1015.23 1015.29 1015.39 1015.51 1015.60 1015.65 1015.65 1015.60 1015.55
1024.67 1023.77 1022.86 1022.05 1021.42 1020.97 1020.65 1020.37 1020.08 1019.71 1019.27 1018.78 1018.31 1017.90 1017.59 1017.37 1017.23 1017.12 1017.01 1016.85 1016.66 1016.44 1016.23 1016.04 1015.90 1015.81 1015.75 1015.70 1015.63 1015.53 1015.41 1015.28 1015.18 1015.13 1015.15 1015.23 1015.35 1015.48 1015.58 1015.65 1015.66 1015.64 1015.60
1025.10 1024.20 1023.31 1022.53 1021.93 1021.49 1021.16 1020.87 1020.54 1020.14 1019.68 1019.19 1018.71 1018.30 1017.98 1017.74 1017.55 1017.38 1017.18 1016.94 1016.66 1016.36 1016.07 1015.84 1015.68 1015.58 1015.54 1015.50 1015.46 1015.38 1015.28 1015.17 1015.09 1015.04 1015.07 1015.15 1015.28 1015.42 1015.53 1015.61 1015.64 1015.64 1015.62
1025.33 1024.46 1023.62 1022.91 1022.37 1021.98 1021.67 1021.37 1021.04 1020.63 1020.15 1019.65 1019.18 1018.77 1018.43 1018.16 1017.92 1017.67 1017.38 1017.04 1016.66 1016.27 1015.91 1015.63 1015.43 1015.33 1015.29 1015.28 1015.26 1015.21 1015.14 1015.05 1014.98 1014.95 1014.98 1015.06 1015.18 1015.32 1015.44 1015.53 1015.57 1015.60 1015.61
1025.41 1024.60 1023.86 1023.25 1022.80 1022.47 1022.20 1021.92 1021.58 1021.16 1020.67 1020.16 1019.68 1019.26 1018.91 1018.61 1018.32 1018.00 1017.62 1017.19 1016.71 1016.23 1015.80 1015.46 1015.23 1015.11 1015.06 1015.06 1015.06 1015.03 1014.98 1014.91 1014.85 1014.82 1014.85 1014.92 1015.04 1015.16 1015.28 1015.38 1015.44 1015.50 1015.56
1025.44 1024.72 1024.10 1023.62 1023.27 1023.02 1022.79 1022.52 1022.17 1021.72 1021.22 1020.70 1020.20 1019.77 1019.40 1019.07 1018.73 1018.36 1017.92 1017.40 1016.84 1016.29 1015.80 1015.40 1015.12 1014.96 1014.89 1014.88 1014.87 1014.84 1014.79 1014.73 1014.67 1014.64 1014.65 1014.72 1014.81 1014.93 1015.04 1015.15 1015.24 1015.33 1015.43
1025.52 1024.92 1024.43 1024.08 1023.84 1023.65 1023.44 1023.17 1022.79 1022.31 1021.77 1021.23 1020.72 1020.27 1019.89 1019.53 1019.17 1018.76 1018.26 1017.70 1017.08 1016.47 1015.91 1015.45 1015.12 1014.91 1014.79 1014.73 1014.69 1014.64 1014.56 1014.48 1014.41 1014.37 1014.37 1014.42 1014.50 1014.61 1014.73 1014.84 1014.96 1015.09 1015.24
1025.75 1025.27 1024.91 1024.67 1024.50 1024.35 1024.14 1023.84 1023.41 1022.89 1022.31 1021.74 1021.21 1020.76 1020.37 1020.01 1019.63 1019.20 1018.67 1018.07 1017.41 1016.75 1016.14 1015.62 1015.22 1014.94 1014.76 1014.62 1014.52 1014.41 1014.29 1014.17 1014.07 1014.01 1014.00 1014.03 1014.11 1014.22 1014.34 1014.47 1014.62 1014.78 1014.97
1026.17 1025.80 1025.54 1025.37 1025.24 1025.09 1024.85 1024.49 1024.01 1023.44 1022.82 1022.23 1021.69 1021.24 1020.86 1020.50 1020.12 1019.68 1019.14 1018.51 1017.82 1017.12 1016.46 1015.89 1015.41 1015.05 1014.77 1014.55 1014.36 1014.17 1013.98 1013.81 1013.68 1013.58 1013.55 1013.58 1013.66 1013.77 1013.91 1014.06 1014.23 1014.42 1014.64
1026.78 1026.49 1026.30 1026.16 1026.03 1025.83 1025.53 1025.10 1024.55 1023.93 1023.29 1022.69 1022.17 1021.74 1021.37 1021.03 1020.66 1020.21 1019.66 1019.01 1018.29 1017.56 1016.85 1016.21 1015.67 1015.21 1014.84 1014.51 1014.21 1013.93 1013.67 1013.43 1013.24 1013.12 1013.08 1013.10 1013.18 1013.31 1013.46 1013.63 1013.82 1014.03 1014.27
1027.52 1027.29 1027.13 1026.98 1026.79 1026.53 1026.14 1025.63 1025.02 1024.36 1023.72 1023.14 1022.65 1022.26 1021.92 1021.60 1021.23 1020.78 1020.21 1019.54 1018.80 1018.03 1017.28 1016.59 1015.97 1015.43 1014.96 1014.52 1014.12 1013.73 1013.37 1013.06 1012.82 1012.66 1012.60 1012.62 1012.72 1012.86 1013.03 1013.22 1013.43 1013.65 1013.89
1028.32 1028.13 1027.96 1027.77 1027.51 1027.15 1026.67 1026.08 1025.43 1024.76 1024.14 1023.60 1023.16 1022.82 1022.52 1022.22 1021.85 1021.39 1020.80 1020.11 1019.34 1018.54 1017.75 1017.01 1016.33 1015.72 1015.15 1014.61 1014.09 1013.60 1013.14 1012.75 1012.44 1012.24 1012.15 1012.17 1012.27 1012.43 1012.63 1012.84 1013.05 1013.28 1013.52
1029.10 1028.94 1028.76 1028.51 1028.17 1027.71 1027.15 1026.50 1025.82 1025.16 1024.57 1024.09 1023.72 1023.42 1023.16 1022.87 1022.50 1022.02 1021.41 1020.69 1019.90 1019.08 1018.26 1017.49 1016.76 1016.08 1015.43 1014.80 1014.17 1013.57 1013.00 1012.51 1012.12 1011.87 1011.74 1011.74 1011.85 1012.03 1012.24 1012.48 1012.70 1012.93 1013.16
1029.81 1029.68 1029.48 1029.19 1028.77 1028.24 1027.61 1026.92 1026.23 1025.59 1025.05 1024.63 1024.31 1024.06 1023.82 1023.54 1023.15 1022.65 1022.01 1021.27 1020.47 1019.63 1018.81 1018.02 1017.27 1016.54 1015.82 1015.10 1014.37 1013.65 1012.97 1012.37 1011.88 1011.55 1011.37 1011.34 1011.44 1011.62 1011.86 1012.11 1012.36 1012.58 1012.80
1030.42 1030.32 1030.13 1029.81 1029.35 1028.77 1028.09 1027.39 1026.70 1026.10 1025.60 1025.23 1024.95 1024.72 1024.48 1024.18 1023.78 1023.24 1022.59 1021.84 1021.03 1020.21 1019.41 1018.62 1017.86 1017.10 1016.32 1015.52 1014.68 1013.84 1013.04 1012.31 1011.70 1011.27 1011.02 1010.94 1011.01 1011.19 1011.44 1011.71 1011.98 1012.22 1012.45
1030.92 1030.88 1030.72 1030.40 1029.93 1029.33 1028.65 1027.94 1027.27 1026.69 1026.23 1025.87 1025.60 1025.36 1025.11 1024.77 1024.33 1023.78 1023.11 1022.36 1021.58 1020.80 1020.02 1019.26 1018.51 1017.73 1016.91 1016.03 1015.09 1014.13 1013.19 1012.33 1011.59 1011.03 1010.68 1010.53 1010.55 1010.72 1010.97 1011.26 1011.55 1011.82 1012.05
1031.34 1031.38 1031.27 1030.98 1030.53 1029.94 1029.27 1028.58 1027.93 1027.36 1026.90 1026.54 1026.24 1025.97 1025.66 1025.28 1024.81 1024.22 1023.56 1022.84 1022.10 1021.36 1020.64 1019.92 1019.19 1018.41 1017.55 1016.60 1015.58 1014.50 1013.42 1012.42 1011.54 1010.85 1010.38 1010.13 1010.09 1010.21 1010.45 1010.75 1011.06 1011.36 1011.62
1031.72 1031.83 1031.79 1031.55 1031.14 1030.59 1029.95 1029.29 1028.65 1028.08 1027.60 1027.20 1026.85 1026.51 1026.14 1025.70 1025.18 1024.59 1023.93 1023.25 1022.57 1021.89 1021.24 1020.57 1019.87 1019.09 1018.20 1017.20 1016.10 1014.92 1013.73 1012.59 1011.57 1010.75 1010.15 1009.79 1009.65 1009.71 1009.91 1010.19 1010.51 1010.83 1011.12
1032.07 1032.26 1032.28 1032.10 1031.75 1031.24 1030.64 1030.00 1029.37 1028.79 1028.28 1027.82 1027.40 1026.98 1026.53 1026.03 1025.48 1024.87 1024.24 1023.60 1022.98 1022.38 1021.78 1021.16 1020.49 1019.72 1018.82 1017.79 1016.63 1015.39 1014.10 1012.86 1011.73 1010.78 1010.05 1009.56 1009.31 1009.27 1009.40 1009.64 1009.94 1010.26 1010.57
1032.42 1032.66 1032.72 1032.60 1032.29 1031.84 1031.28 1030.67 1030.05 1029.46 1028.90 1028.38 1027.88 1027.38 1026.86 1026.31 1025.72 1025.12 1024.51 1023.92 1023.35 1022.80 1022.25 1021.67 1021.02 1020.27 1019.38 1018.34 1017.16 1015.89 1014.57 1013.26 1012.04 1010.99 1010.14 1009.52 1009.13 1008.97 1008.99 1009.15 1009.40 1009.68 1009.98
1032.78 1033.02 1033.11 1033.02 1032.75 1032.34 1031.83 1031.25 1030.64 1030.04 1029.45 1028.88 1028.32 1027.75 1027.17 1026.57 1025.96 1025.36 1024.77 1024.20 1023.67 1023.15 1022.64 1022.08 1021.45 1020.72 1019.84 1018.83 1017.68 1016.42 1015.11 1013.80 1012.54 1011.41 1010.46 1009.71 1009.18 1008.86 1008.73 1008.77 1008.92 1009.14 1009.40
1033.12 1033.34 1033.42 1033.33 1033.08 1032.71 1032.23 1031.69 1031.11 1030.52 1029.92 1029.32 1028.71 1028.10 1027.48 1026.85 1026.23 1025.62 1025.04 1024.49 1023.97 1023.46 1022.94 1022.38 1021.76 1021.04 1020.21 1019.24 1018.16 1016.97 1015.73 1014.46 1013.22 1012.06 1011.02 1010.15 1009.46 1008.97 1008.67 1008.55 1008.56 1008.68 1008.88
1033.43 1033.60 1033.65 1033.54 1033.30 1032.95 1032.51 1032.01 1031.46 1030.89 1030.30 1029.70 1029.08 1028.45 1027.81 1027.17 1026.54 1025.93 1025.35 1024.79 1024.24 1023.71 1023.16 1022.58 1021.95 1021.24 1020.45 1019.56 1018.58 1017.51 1016.38 1015.20 1014.02 1012.86 1011.78 1010.80 1009.97 1009.30 1008.80 1008.49 1008.34 1008.34 1008.44
1033.70 1033.81 1033.80 1033.66 1033.41 1033.07 1032.67 1032.21 1031.71 1031.18 1030.62 1030.04 1029.43 1028.81 1028.17 1027.53 1026.90 1026.28 1025.67 1025.08 1024.50 1023.91 1023.31 1022.69 1022.03 1021.34 1020.59 1019.79 1018.92 1018.00 1017.00 1015.95 1014.85 1013.74 1012.63 1011.57 1010.60 1009.76 1009.09 1008.58 1008.27 1008.12 1008.11
1033.92 1033.97 1033.89 1033.72 1033.46 1033.13 1032.76 1032.34 1031.89 1031.41 1030.89 1030.34 1029.76 1029.15 1028.53 1027.90 1027.26 1026.63 1026.00 1025.36 1024.72 1024.06 1023.39 1022.71 1022.02 1021.33 1020.62 1019.91 1019.16 1018.38 1017.54 1016.62 1015.63 1014.57 1013.46 1012.34 1011.27 1010.29 1009.45 1008.78 1008.31 1008.03 1007.92
Thickness
5675 5678 5684 5689 5693 5696 5699 5700 5702 5703 5704 5705 5706 5707 5709 5710 5712 5713 5714 5715 5716 5717 5718 5719 5720 5722 5723 5724 5725 5726 5726 5727 5728 5729 5730 5730 5731 5732 5733 5733 5734 5737 5738
5667 5670 5676 5680 5684 5687 5690 5692 5694 5695 5697 5698 5700 5701 5702 5703 5705 5706 5708 5709 5711 5712 5713 5714 5716 5717 5718 5719 5721 5722 5723 5724 5725 5726 5727 5727 5728 5729 5730 5731 5732 5734 5735
5662 5664 5668 5671 5675 5677 5680 5682 5684 5686 5687 5689 5691 5693 5695 5697 5698 5699 5701 5703 5704 5706 5708 5709 5711 5712 5714 5715 5716 5718 5719 5721 5722 5723 5724 5725 5726 5727 5727 5728 5729 5730 5732
5658 5658 5660 5663 5666 5668 5670 5672 5674 5675 5677 5679 5681 5683 5686 5688 5690 5692 5694 5695 5697 5699 5701 5703 5705 5707 5709 5710 5712 5713 5715 5717 5718 5720 5721 5723 5723 5724 5725 5725 5725 5727 5728
5653 5653 5653 5656 5658 5659 5661 5662 5663 5665 5667 5669 5671 5673 5676 5679 5681 5683 5686 5688 5689 5692 5694 5696 5698 5701 5703 5705 5707 5709 5711 5712 5714 5715 5718 5720 5721 5721 5722 5722 5722 5724 5725
5646 5647 5647 5648 5650 5651 5652 5652 5653 5654 5656 5658 5660 5662 5665 5668 5671 5673 5676 5678 5681 5683 5686 5689 5691 5694 5696 5699 5701 5703 5705 5707 5708 5710 5714 5716 5717 5718 5719 5719 5719 5720 5721
5640 5640 5641 5641 5642 5643 5643 5643 5643 5644 5645 5647 5648 5650 5653 5656 5659 5661 5664 5667 5670 5673 5677 5680 5683 5686 5689 5691 5694 5697 5699 5701 5702 5705 5709 5712 5713 5714 5715 5715 5716 5716 5717
5633 5633 5633 5633 5633 5634 5634 5633 5633 5634 5634 5636 5637 5638 5640 5643 5646 5648 5651 5654 5658 5662 5666 5671 5675 5678 5681 5683 5686 5689 5692 5694 5697 5700 5703 5706 5709 5709 5710 5711 5712 5713 5713
5625 5625 5624 5623 5622 5622 5623 5623 5622 5622 5622 5623 5624 5624 5626 5629 5632 5634 5637 5640 5644 5649 5654 5659 5664 5668 5672 5675 5678 5681 5683 5686 5689 5693 5697 5701 5703 5704 5705 5707 5708 5708 5709
5617 5616 5614 5612 5611 5610 5611 5611 5610 5610 5609 5610 5610 5611 5612 5614 5617 5619 5622 5625 5630 5634 5640 5646 5652 5657 5662 5666 5669 5672 5675 5678 5682 5685 5690 5695 5698 5698 5700 5701 5703 5704 5705
5607 5605 5602 5600 5598 5596 5597 5596 5596 5596 5595 5595 5595 5595 5596 5598 5600 5603 5605 5609 5614 5619 5625 5631 5637 5643 5650 5656 5660 5664 5667 5670 5674 5679 5684 5689 5691 5692 5694 5695 5697 5698 5700
5595 5591 5588 5585 5583 5581 5580 5580 5579 5579 5578 5577 5577 5577 5578 5579 5581 5584 5586 5591 5596 5602 5608 5614 5620 5628 5635 5642 5648 5653 5657 5662 5666 5672 5678 5683 5685 5686 5687 5689 5691 5693 5695
5580 5577 5573 5570 5567 5565 5563 5562 5561 5559 5558 5557 5556 5556 5557 5558 5560 5563 5566 5571 5576 5583 5589 5595 5602 5609 5617 5625 5634 5641 5647 5652 5658 5664 5672 5677 5679 5679 5680 5683 5686 5688 5689
5568 5563 5559 5555 5551 5547 5543 5541 5539 5537 5535 5533 5532 5532 5533 5534 5535 5538 5541 5547 5553 5560 5566 5573 5580 5589 5598 5608 5618 5627 5634 5641 5648 5655 5661 5668 5670 5672 5673 5676 5679 5682 5684
5554 5548 5542 5537 5532 5526 5522 5518 5515 5512 5509 5507 5505 5504 5504 5505 5506 5509 5513 5520 5527 5535 5542 5549 5558 5568 5578 5589 5600 5610 5620 5628 5636 5643 5650 5656 5661 5663 5665 5669 5672 5675 5678
5537 5530 5523 5517 5509 5503 5497 5492 5489 5485 5482 5479 5477 5475 5475 5475 5476 5479 5483 5490 5498 5506 5515 5523 5533 5544 5555 5566 5579 5590 5603 5613 5623 5631 5637 5643 5650 5654 5657 5660 5665 5668 5672
5520 5511 5504 5497 5488 5480 5472 5466 5460 5455 5451 5448 5446 5444 5444 5443 5446 5448 5452 5459 5467 5475 5484 5495 5506 5518 5530 5542 5555 5568 5582 5595 5606 5617 5625 5631 5638 5644 5648 5651 5655 5660 5664
5503 5492 5482 5473 5464 5455 5446 5438 5432 5426 5422 5419 5418 5416 5414 5414 5417 5420 5423 5429 5435 5443 5453 5464 5476 5488 5501 5514 5529 5544 5559 5573 5587 5600 5611 5620 5627 5632 5637 5641 5646 5651 5656
5485 5473 5461 5451 5440 5430 5422 5412 5406 5401 5397 5395 5394 5392 5390 5391 5393 5395 5399 5403 5407 5413 5422 5431 5443 5456 5471 5486 5502 5520 5536 5553 5569 5583 5596 5607 5615 5622 5626 5631 5636 5641 5646
5467 5453 5440 5428 5417 5407 5398 5390 5385 5380 5376 5375 5373 5372 5370 5371 5373 5376 5379 5381 5384 5389 5395 5402 5413 5425 5439 5455 5474 5494 5513 5532 5550 5566 5580 5592 5602 5610 5616 5622 5626 5631 5637
5450 5434 5420 5407 5396 5386 5378 5371 5367 5363 5360 5358 5355 5353 5352 5352 5354 5357 5360 5362 5364 5368 5372 5378 5386 5397 5410 5425 5445 5468 5493 5515 5534 5549 5563 5575 5587 5597 5605 5612 5617 5622 5628
5431 5414 5400 5387 5376 5366 5357 5350 5345 5342 5340 5338 5335 5333 5333 5333 5335 5338 5340 5342 5345 5349 5354 5358 5364 5373 5384 5396 5412 5436 5466 5493 5511 5531 5544 5557 5570 5580 5590 5599 5606 5613 5619
5413 5397 5382 5368 5358 5348 5340 5334 5328 5326 5322 5318 5316 5315 5313 5313 5314 5317 5320 5322 5326 5330 5336 5340 5346 5352 5360 5371 5383 5401 5427 5453 5471 5503 5520 5536 5547 5560 5574 5585 5595 5603 5609
5395 5379 5364 5351 5341 5332 5323 5316 5310 5306 5302 5298 5296 5295 5294 5293 5294 5296 5299 5302 5306 5312 5318 5323 5329 5333 5340 5351 5361 5375 5391 5412 5436 5465 5493 5510 5523 5540 5556 5570 5581 5591 5599
5379 5363 5349 5337 5326 5317 5307 5299 5293 5287 5284 5281 5279 5278 5277 5276 5277 5278 5279 5283 5287 5293 5300 5306 5312 5318 5324 5331 5341 5353 5368 5387 5408 5430 5457 5482 5501 5518 5534 5550 5565 5577 5587
5365 5349 5336 5324 5313 5304 5295 5287 5280 5275 5271 5268 5266 5264 5263 5262 5262 5261 5262 5265 5269 5275 5282 5290 5297 5303 5310 5317 5325 5335 5347 5363 5383 5403 5427 5450 5472 5494 5511 5529 5546 5561 5572